| time (UTC) | temp F | wind direction | speed MPH | gust MPH | rain 1hr in | rain 24hr in | rain mn in | humidity % | barometer mb |
| 20260507234552 | 37 | 136 | 0.0 | 0.0 | 0.00 | 0.00 | 0.00 | 1 | 1018.3 |
| 20260507233047 | 38 | 136 | 0.0 | 1.0 | 0.00 | 0.00 | 0.00 | 1 | 1018.3 |
| 20260507231543 | 38 | 136 | 0.0 | 0.0 | 0.00 | 0.00 | 0.00 | 3 | 1018.3 |
| 20260507230039 | 38 | 136 | 0.0 | 1.0 | 0.00 | 0.00 | 0.00 | 11 | 1018.3 |
| 20260507224536 | 39 | 136 | 0.0 | 0.0 | 0.00 | 0.00 | 0.00 | 16 | 1018.3 |
| 20260507223031 | 39 | 136 | 0.0 | 0.0 | 0.00 | 0.00 | 0.00 | 20 | 1018.3 |
| 20260507221528 | 40 | 136 | 0.0 | 0.0 | 0.00 | 0.00 | 0.00 | 24 | 1018.2 |
| 20260507220025 | 40 | 136 | 0.0 | 0.0 | 0.00 | 0.00 | 0.00 | 28 | 1018.3 |
| 20260507214521 | 41 | 136 | 0.0 | 0.0 | 0.00 | 0.00 | 0.00 | 32 | 1018.2 |
| 20260507213019 | 41 | 136 | 0.0 | 0.0 | 0.00 | 0.00 | 0.00 | 38 | 1018.2 |
| 20260507211528 | 42 | 136 | 0.0 | 0.0 | 0.00 | 0.00 | 0.00 | 40 | 1018.2 |
| 20260507210008 | 43 | 136 | 0.0 | 0.0 | 0.00 | 0.00 | 0.00 | 43 | 1018.1 |
| 20260507204503 | 43 | 136 | 0.0 | 0.0 | 0.00 | 0.00 | 0.00 | 43 | 1018.1 |
| 20260507203102 | 44 | 136 | 0.0 | 0.0 | 0.00 | 0.00 | 0.00 | 44 | 1018.1 |
| 20260507201555 | 45 | 136 | 0.0 | 0.0 | 0.00 | 0.00 | 0.00 | 46 | 1018.1 |
| 20260507200050 | 45 | 136 | 0.0 | 1.0 | 0.00 | 0.00 | 0.00 | 47 | 1017.9 |
| 20260507194548 | 46 | 136 | 0.0 | 1.0 | 0.00 | 0.00 | 0.00 | 48 | 1017.7 |
| 20260507193044 | 46 | 136 | 0.0 | 2.0 | 0.00 | 0.00 | 0.00 | 51 | 1017.6 |
| 20260507191542 | 47 | 135 | 0.0 | 3.0 | 0.00 | 0.00 | 0.00 | 52 | 1017.4 |
| 20260507190033 | 48 | 136 | 0.0 | 4.0 | 0.00 | 0.00 | 0.00 | 53 | 1017.3 |
| 20260507184528 | 50 | 212 | 1.0 | 3.0 | 0.00 | 0.00 | 0.00 | 51 | 1017.2 |
| 20260507183024 | 51 | 138 | 0.0 | 4.0 | 0.00 | 0.00 | 0.00 | 49 | 1017.1 |
| 20260507181521 | 53 | 144 | 0.0 | 3.0 | 0.00 | 0.00 | 0.00 | 45 | 1017.1 |
| 20260507180034 | 53 | 138 | 0.0 | 4.0 | 0.00 | 0.00 | 0.00 | 45 | 1017.1 |
| 20260507174516 | 54 | 212 | 1.0 | 4.0 | 0.00 | 0.00 | 0.00 | 44 | 1017.0 |
| 20260507173013 | 55 | 127 | 0.0 | 5.0 | 0.00 | 0.00 | 0.00 | 43 | 1016.9 |
| 20260507171504 | 54 | 212 | 1.0 | 5.0 | 0.00 | 0.00 | 0.00 | 44 | 1016.9 |
| 20260507170059 | 55 | 154 | 2.0 | 6.0 | 0.00 | 0.00 | 0.00 | 43 | 1016.9 |
| 20260507164554 | 56 | 212 | 2.0 | 6.0 | 0.00 | 0.00 | 0.00 | 41 | 1016.8 |
| 20260507163056 | 56 | 162 | 1.0 | 5.0 | 0.00 | 0.00 | 0.00 | 40 | 1016.9 |
| 20260507161552 | 56 | 212 | 2.0 | 6.0 | 0.00 | 0.00 | 0.00 | 40 | 1016.9 |
| 20260507160041 | 58 | 212 | 1.0 | 4.0 | 0.00 | 0.00 | 0.00 | 39 | 1017.0 |
| 20260507154536 | 56 | 89 | 0.0 | 5.0 | 0.00 | 0.00 | 0.00 | 41 | 1017.0 |
| 20260507153032 | 55 | 170 | 1.0 | 9.0 | 0.00 | 0.00 | 0.00 | 42 | 1017.1 |
| 20260507151528 | 56 | 114 | 1.0 | 8.0 | 0.00 | 0.00 | 0.00 | 41 | 1017.0 |
| 20260507150025 | 55 | 141 | 1.0 | 9.0 | 0.00 | 0.00 | 0.00 | 41 | 1017.1 |
| 20260507144519 | 55 | 212 | 2.0 | 7.0 | 0.00 | 0.00 | 0.00 | 41 | 1017.1 |
| 20260507143015 | 55 | 133 | 3.0 | 9.0 | 0.00 | 0.00 | 0.00 | 40 | 1017.1 |
| 20260507141510 | 55 | 89 | 2.0 | 7.0 | 0.00 | 0.00 | 0.00 | 41 | 1017.1 |
| 20260507140008 | 55 | 133 | 1.0 | 6.0 | 0.00 | 0.00 | 0.00 | 40 | 1017.2 |
| 20260507134502 | 54 | 115 | 3.0 | 8.0 | 0.00 | 0.00 | 0.00 | 41 | 1017.1 |
| 20260507133058 | 54 | 212 | 1.0 | 9.0 | 0.00 | 0.00 | 0.00 | 41 | 1017.2 |
| 20260507131554 | 54 | 212 | 5.0 | 9.0 | 0.00 | 0.00 | 0.00 | 43 | 1017.0 |
| 20260507130101 | 56 | 212 | 4.0 | 10.0 | 0.00 | 0.00 | 0.00 | 40 | 1017.0 |
| 20260507124551 | 55 | 212 | 2.0 | 9.0 | 0.00 | 0.00 | 0.00 | 41 | 1017.0 |
| 20260507123040 | 55 | 156 | 3.0 | 9.0 | 0.00 | 0.00 | 0.00 | 41 | 1016.9 |
| 20260507121535 | 55 | 183 | 3.0 | 8.0 | 0.00 | 0.00 | 0.00 | 40 | 1016.9 |
| 20260507120033 | 54 | 212 | 4.0 | 10.0 | 0.00 | 0.00 | 0.00 | 41 | 1016.9 |
| 20260507114526 | 54 | 212 | 4.0 | 10.0 | 0.00 | 0.00 | 0.00 | 42 | 1016.9 |
| 20260507113026 | 53 | 212 | 2.0 | 8.0 | 0.00 | 0.00 | 0.00 | 43 | 1016.9 |
| 20260507111520 | 54 | 212 | 2.0 | 9.0 | 0.00 | 0.00 | 0.00 | 43 | 1016.9 |
| 20260507110012 | 54 | 127 | 1.0 | 11.0 | 0.00 | 0.00 | 0.00 | 44 | 1016.9 |
| 20260507104508 | 54 | 202 | 2.0 | 8.0 | 0.00 | 0.00 | 0.00 | 41 | 1016.8 |
| 20260507103004 | 53 | 212 | 2.0 | 5.0 | 0.00 | 0.00 | 0.00 | 40 | 1016.9 |
| 20260507101600 | 52 | 212 | 0.0 | 5.0 | 0.00 | 0.00 | 0.00 | 39 | 1016.9 |
| 20260507100107 | 51 | 217 | 0.0 | 7.0 | 0.00 | 0.00 | 0.00 | 42 | 1017.0 |
| 20260507094551 | 51 | 148 | 1.0 | 5.0 | 0.00 | 0.00 | 0.00 | 40 | 1017.0 |
| 20260507093047 | 51 | 207 | 1.0 | 5.0 | 0.00 | 0.00 | 0.00 | 41 | 1017.0 |
| 20260507091545 | 50 | 185 | 1.0 | 8.0 | 0.00 | 0.00 | 0.00 | 40 | 1016.9 |
| 20260507090038 | 49 | 212 | 3.0 | 8.0 | 0.00 | 0.00 | 0.00 | 40 | 1016.9 |
| 20260507084542 | 49 | 212 | 2.0 | 6.0 | 0.00 | 0.00 | 0.00 | 40 | 1016.9 |
| 20260507083029 | 48 | 221 | 3.0 | 8.0 | 0.00 | 0.00 | 0.00 | 39 | 1016.9 |
| 20260507081525 | 47 | 238 | 3.0 | 9.0 | 0.00 | 0.00 | 0.00 | 38 | 1016.9 |
| 20260507080020 | 47 | 231 | 3.0 | 8.0 | 0.00 | 0.00 | 0.00 | 36 | 1016.7 |
| 20260507074515 | 46 | 246 | 4.0 | 10.0 | 0.00 | 0.00 | 0.00 | 32 | 1016.7 |
| 20260507073012 | 45 | 259 | 4.0 | 8.0 | 0.00 | 0.00 | 0.00 | 20 | 1016.7 |
| 20260507071507 | 43 | 239 | 2.0 | 6.0 | 0.00 | 0.00 | 0.00 | 5 | 1016.8 |
| 20260507070004 | 42 | 238 | 1.0 | 6.0 | 0.00 | 0.00 | 0.00 | 1 | 1016.8 |
| 20260507064600 | 40 | 241 | 1.0 | 3.0 | 0.00 | 0.00 | 0.00 | 1 | 1016.8 |
| 20260507063054 | 39 | 217 | 0.0 | 3.0 | 0.00 | 0.00 | 0.00 | 1 | 1016.7 |
| 20260507061550 | 37 | 217 | 1.0 | 3.0 | 0.00 | 0.00 | 0.00 | 1 | 1016.6 |
| 20260507060045 | 37 | 217 | 0.0 | 1.0 | 0.00 | 0.00 | 0.00 | 1 | 1016.6 |
| 20260507054602 | 36 | 217 | 0.0 | 0.0 | 0.00 | 0.00 | 0.00 | 1 | 1016.7 |
| 20260507053037 | 35 | 217 | 0.0 | 0.0 | 0.00 | 0.00 | 0.00 | 1 | 1016.7 |
| 20260507051533 | 35 | 217 | 0.0 | 0.0 | 0.00 | 0.00 | 0.00 | 1 | 1016.6 |
| 20260507050039 | 34 | 217 | 0.0 | 0.0 | 0.00 | 0.00 | 0.00 | 1 | 1016.5 |
| 20260507044524 | 33 | 217 | 0.0 | 0.0 | 0.00 | 0.00 | 0.00 | 1 | 1016.4 |
| 20260507043019 | 33 | 217 | 0.0 | 1.0 | 0.00 | 0.00 | 0.00 | 1 | 1016.3 |
| 20260507041515 | 32 | 217 | 0.0 | 1.0 | 0.00 | 0.00 | 0.00 | 1 | 1016.3 |
| 20260507040011 | 32 | 217 | 0.0 | 0.0 | 0.00 | 0.00 | 0.00 | 1 | 1016.3 |
| 20260507034507 | 33 | 217 | 0.0 | 0.0 | 0.00 | 0.00 | 0.00 | 1 | 1016.2 |
| 20260507033002 | 33 | 217 | 0.0 | 1.0 | 0.00 | 0.00 | 0.00 | 1 | 1016.2 |
| 20260507031600 | 33 | 217 | 0.0 | 2.0 | 0.00 | 0.00 | 0.00 | 1 | 1016.1 |
| 20260507030053 | 33 | 217 | 0.0 | 0.0 | 0.00 | 0.00 | 0.00 | 1 | 1016.1 |
| 20260507024553 | 34 | 217 | 0.0 | 2.0 | 0.00 | 0.00 | 0.00 | 1 | 1016.0 |
| 20260507023044 | 34 | 217 | 0.0 | 1.0 | 0.00 | 0.00 | 0.00 | 1 | 1015.8 |
| 20260507021540 | 35 | 217 | 0.0 | 1.0 | 0.00 | 0.00 | 0.00 | 1 | 1015.8 |
| 20260507020045 | 35 | 217 | 0.0 | 1.0 | 0.00 | 0.00 | 0.00 | 1 | 1015.8 |
| 20260507014534 | 35 | 217 | 0.0 | 2.0 | 0.00 | 0.00 | 0.00 | 1 | 1015.9 |
| 20260507013026 | 36 | 217 | 0.0 | 1.0 | 0.00 | 0.00 | 0.00 | 1 | 1015.8 |
| 20260507011524 | 37 | 217 | 0.0 | 2.0 | 0.00 | 0.00 | 0.00 | 1 | 1015.7 |
| 20260507010028 | 37 | 217 | 0.0 | 4.0 | 0.00 | 0.00 | 0.00 | 1 | 1015.6 |
| 20260507004515 | 38 | 212 | 2.0 | 6.0 | 0.00 | 0.00 | 0.00 | 1 | 1015.7 |
| 20260507003009 | 38 | 212 | 1.0 | 5.0 | 0.00 | 0.00 | 0.00 | 1 | 1015.6 |
| 20260507001506 | 38 | 212 | 0.0 | 4.0 | 0.00 | 0.00 | 0.00 | 1 | 1015.6 |
| 20260507000127 | 37 | 212 | 1.0 | 4.0 | 0.00 | 0.00 | 0.00 | 2 | 1015.6 |